Location: Our Prairie Sky
(41.4667°N, 87.7000°W)
Time: 15:40:44
(UTC-05:00)

Envisat - Visible Passes

Search period start: 14 October 2019 00:00
Search period end: 24 October 2019 00:00
Orbit: 764 x 766 km, 98.1° (Epoch: 14 October)

Date Brightness Start Highest point End Pass type
(mag) Time Alt. Az. Time Alt. Az. Time Alt. Az.
14 Oct 4.5 19:33:39 10° SSW 19:38:23 39° W 19:43:10 10° NNW visible
15 Oct 3.0 18:56:28 10° SSE 19:01:32 88° WSW 19:06:39 10° NNW visible
16 Oct 5.4 20:00:06 10° SW 20:04:04 23° W 20:08:03 10° NW visible
17 Oct 6.3 06:30:23 10° ENE 06:33:03 14° E 06:35:44 10° ESE visible
17 Oct 4.0 19:22:10 10° S 19:27:05 50° W 19:32:02 10° NNW visible
18 Oct 2.9 18:45:15 10° SSE 18:50:18 74° ENE 18:55:23 10° N visible
18 Oct 6.1 20:27:38 10° WSW 20:29:51 13° W 20:32:04 10° WNW visible
19 Oct 5.0 19:48:22 10° SSW 19:52:43 29° W 19:57:07 10° NW visible
20 Oct 6.7 06:20:22 10° ENE 06:21:39 11° E 06:22:56 10° ESE visible
20 Oct 3.5 19:10:46 10° S 19:15:47 64° W 19:20:51 10° NNW visible
21 Oct 3.1 18:34:06 10° SSE 18:39:04 58° ENE 18:44:03 10° N visible
21 Oct 5.9 20:15:18 10° SW 20:18:27 16° W 20:21:37 10° NW visible
22 Oct 4.6 19:36:44 10° SSW 19:41:23 36° W 19:46:04 10° NNW visible
23 Oct 3.1 18:59:26 10° S 19:04:31 81° WSW 19:09:38 10° NNW visible
